Dewpoint
45 45 45 45 45 45 46 47 49 49 49 50 51 52 53 54 55 55 55 54 55 55
44 44 44 44 45 46 47 46 46 47 48 49 50 50 51 51 52 53 53 53 54 53
43 43 43 43 43 44 44 44 44 45 46 47 47 48 49 50 51 51 51 51 50 50
42 42 42 41 42 42 42 42 42 43 43 44 44 44 45 48 48 48 48 47 48 46
41 41 40 40 40 40 40 41 41 41 41 42 42 42 43 46 46 46 45 45 45 43
40 39 39 39 40 39 39 40 40 39 40 40 40 40 40 43 43 42 42 42 42 41
39 39 39 39 39 39 39 39 38 38 38 39 39 39 39 39 39 38 38 38 39 39
38 38 39 39 39 38 38 38 38 38 38 38 38 39 39 39 39 38 38 38 38 38
38 38 39 39 38 38 37 37 37 37 37 37 37 39 40 39 38 38 37 37 38 38
38 38 39 38 38 37 36 36 37 37 37 36 38 39 40 39 38 37 36 36 34 32
38 38 38 38 37 37 36 36 36 37 37 36 36 37 37 36 35 35 34 34 31 29
38 38 37 37 37 37 37 37 37 37 35 34 34 34 34 30 28 28 28 27 26 28
38 37 37 37 37 37 37 36 36 35 35 34 33 33 30 27 25 23 23 24 25 29
37 37 37 37 37 37 36 35 34 34 33 32 31 29 26 26 22 20 18 18 19 24
Wind_Speed
13 7 3 7 10 10 5 8 3 2 2 2 3 3 3 3 3 4 6 7 8 11
15 14 11 8 10 7 4 4 3 1 1 1 3 3 5 4 5 3 2 1 2 2
20 16 13 11 11 10 8 6 4 0 2 2 3 4 6 4 4 4 3 2 2 2
9 17 16 12 9 10 8 6 4 4 0 3 4 4 6 7 4 3 6 3 5 4
5 7 7 9 10 8 5 5 4 3 1 2 3 3 5 8 6 7 6 5 5 5
10 9 8 6 8 8 7 6 4 2 1 2 2 1 3 1 3 4 5 5 5 5
10 8 6 8 8 8 7 7 5 4 3 4 3 2 2 3 6 7 7 8 8 6
11 10 8 9 10 10 8 6 4 3 3 4 3 2 4 6 7 7 8 8 7 7
12 12 11 11 10 8 6 5 3 3 4 3 2 3 5 5 7 6 7 10 9 8
15 13 13 12 9 6 5 4 5 5 6 6 4 4 5 7 7 9 9 8 9 7
16 15 12 11 8 7 6 7 7 8 8 8 5 5 6 7 6 7 8 9 7 5
16 15 14 12 11 10 10 9 9 9 10 9 7 6 7 9 9 8 7 5 5 9
17 17 16 14 14 10 10 10 10 9 10 11 10 10 9 9 9 8 7 5 4 7
16 17 15 12 11 13 12 11 11 10 8 7 10 10 11 11 9 9 9 8 8 6
Wind_Direction
129 122 111 136 135 132 208 134 144 99 68 357 316 307 274 278 291 272 252 265 268 263
138 140 152 148 113 134 163 147 121 28 11 334 283 281 269 267 256 263 275 268 233 189
151 153 164 149 149 168 167 167 126 225 13 311 292 287 274 245 227 214 219 221 182 147
186 160 153 153 177 178 160 137 150 150 89 300 301 311 301 249 235 223 204 186 169 138
163 129 146 160 154 148 136 143 172 125 174 293 289 309 295 254 221 240 222 200 153 149
181 171 177 169 159 155 157 149 140 105 163 167 108 53 6 276 168 157 147 151 154 136
189 188 184 175 165 150 142 136 124 104 136 144 139 148 110 105 125 113 102 100 105 122
185 179 163 146 137 132 132 133 129 134 120 154 182 215 211 169 161 138 119 101 99 98
188 179 171 158 152 148 139 131 143 163 180 192 156 204 208 173 152 149 143 131 111 105
187 182 175 164 156 149 156 156 180 181 169 158 139 170 177 159 151 152 146 148 147 134
190 186 178 174 162 163 171 188 189 187 169 149 144 152 137 132 136 145 149 158 164 161
185 184 182 182 177 180 187 190 192 184 163 156 152 168 157 139 140 145 151 157 172 173
183 184 187 186 185 183 189 191 177 173 177 179 169 190 178 158 152 160 170 166 188 167
179 182 187 189 184 184 186 186 189 190 192 195 189 200 190 186 180 185 178 189 197 194